Other Public Products
Issued by NWS Grand Forks, ND

Home | Current Version | Previous Version | Text Only | Print | Product List | Glossary Off
Versions: 1 2 3 4 5 6 7 8 9 10 11 12 13 14 15 16 17 18 19 20 21 22 23 24 25 26 27 28 29 30 31 32 33 34 35 36 37 38 39 40 41 42 43 44 45 46 47 48 49 50

000
FPUS83 KFGF 311310
OPUFGF
PRAIRIE TO PINES WEATHER ROUNDUP
NATIONAL WEATHER SERVICE EASTERN NORTH DAKOTA/GRAND FORKS ND
800 AM CDT WED AUG 31 2016

 **SATELLITE DATA USED TO AUGMENT SKY COVER AT AUTOMATED STATIONS**
 *****  WEATHER ACROSS EASTERN NORTH DAKOTA  *****

CITY           SKY/WX    TMP DP  RH WIND       PRES   REMARKS
GRAND FORKS    PTSUNNY   53  50  89 CALM      30.26R
GRAND FORKS AF PTSUNNY   53  49  89 NW5       30.28R
GRAND CITY NWS   N/A     54 N/A N/A VRB2        N/A
BUXTON           N/A     43  57 100 N2          N/A
DEVILS LAKE    PTSUNNY   56  49  77 E6        30.28R
FARGO          SUNNY     56  53  90 N5        30.25R
WAHPETON ARPT  SUNNY     54  50  87 CALM      30.26R
$$

 *****  WEATHER ACROSS CENTRAL AND WESTERN NORTH DAKOTA  *****

CITY           SKY/WX    TMP DP  RH WIND       PRES   REMARKS
JAMESTOWN      CLOUDY    59  56  89 CALM      30.26R
BISMARCK       CLOUDY    63  58  83 E8        30.19S
MINOT          CLEAR     60  54  80 E9        30.20R
MINOT AFB      MOCLDY    59  53  80 E13       30.19R
GARRISON         N/A     63  61  93 SE8       30.19R
WILLISTON      CLEAR     65  54  67 E8        30.11R
DICKINSON      CLOUDY    57  57 100 SE12      30.14R FOG
HETTINGER      CLEAR     58  56  93 E7        30.16R
$$

 *****  OTHER OBSERVATIONS NORTHEAST NORTH DAKOTA  *****

CITY           SKY/WX    TMP DP  RH WIND       PRES   REMARKS
WALHALLA       NOT AVBL
LANGDON        FAIR      54  50  87 E6        30.30R
CAVALIER       FAIR      54  50  87 CALM      30.29S
GRAFTON        FAIR      54  52  94 N5        30.30R
CANDO          NOT AVBL
FORT TOTTEN    NOT AVBL
ROLLA          FAIR      50  48  93 CALM      30.30S
RUGBY          FAIR      55  48  76 E14       30.24F
 ***** THE ABOVE OBSERVATIONS ARE NON NWS ARE NOT QUALITY
        CONTROLLED AND MAY MIS-REPORT RAIN FOR SNOW...
$$

 *****  OTHER OBSERVATIONS SOUTHEAST NORTH DAKOTA *****

CITY           SKY/WX    TMP DP  RH WIND       PRES   REMARKS
COOPERSTOWN    NOT AVBL
VALLEY CITY    PTSUNNY   57  57 100 CALM      30.29R
OAKES            N/A    N/A N/A N/A MISG        N/A
GWINNER        FAIR      57  55  94 CALM      30.26S
SHEYENNE NWR     N/A     55  54  97 NE2       29.95S
BUFFALO          N/A     57  54  90 NE3         N/A
WYNDMERE       NOT AVBL
 ***** THE ABOVE OBSERVATIONS ARE NON NWS ARE NOT QUALITY
       CONTROLLED AND MAY MIS-REPORT RAIN FOR SNOW...
$$

  *****  WEATHER ACROSS NORTHERN MINNESOTA  *****

CITY           SKY/WX    TMP DP  RH WIND       PRES   REMARKS
FLAG ISLAND    SUNNY     59  55  88 CALM      30.25F FOG
WARROAD        SUNNY     52  48  87 NW5       30.28S
ROSEAU         SUNNY     52  46  82 CALM      30.27F
HALLOCK        SUNNY     54  50  87 CALM      30.28R
THF RVR FALLS  SUNNY     55  51  86 NE3       30.28R
HALSTAD          N/A     55  54  95 CALM        N/A
FOSSTON        CLOUDY    55  54  94 CALM      30.27S
BAUDETTE       MOSUNNY   54  52  93 CALM      30.26R
WASKISH        SUNNY     52  52 100 CALM      30.25F
CROOKSTON      PTSUNNY   55  52  88 CALM      30.27S
$$
  *****  WEATHER ACROSS CENTRAL AND WEST MINNESOTA  *****

CITY           SKY/WX    TMP DP  RH WIND       PRES   REMARKS
BEMIDJI        SUNNY     50  49  95 CALM      30.26R
PARK RAPIDS    NOT AVBL
WADENA         SUNNY     54  54 100 CALM      30.24S
DETROIT LAKES  SUNNY     59  55  88 CALM      30.27S
MOORHEAD       SUNNY     54  52  94 CALM      30.26R
FERGUS FALLS   SUNNY     59  57  94 NE5       30.26S
ELBOW LAKE     FAIR      60  58  94 CALM      30.26R
MORRIS MN      SUNNY     57  55  94 CALM      30.24R
STAPLES        SUNNY     54  54 100 CALM      30.25R
WHEATON        MOSUNNY   59  57  94 CALM      30.27R
$$
  *****  WEATHER ELSEWHERE ACROSS MINNESOTA  *****

CITY           SKY/WX    TMP DP  RH WIND       PRES   REMARKS
DULUTH         MOSUNNY   57  51  80 N7        30.21F
INTRNTL FALLS  SUNNY     53  51  93 NW5       30.24S
ELY            SUNNY     48  48 100 CALM      30.22S
CLOQUET        SUNNY     54  48  82 NW6       30.22S
BRAINERD       FOG       53  53 100 CALM      30.24R VSB<1/4
HIBBING        SUNNY     51  49  92 NW3       30.23S
ALEXANDRIA     SUNNY     62  57  83 CALM      30.25S
SAINT CLOUD    SUNNY     57  56  96 CALM      30.23R
MINNEAPOLIS    MOSUNNY   62  55  77 CALM      30.21S
$$

  *****  WEATHER ACROSS SOUTH DAKOTA  *****

CITY           SKY/WX    TMP DP  RH WIND       PRES   REMARKS
SIOUX FALLS    MOSUNNY   61  58  90 CALM      30.24R
BROOKINGS      NOT AVBL
WATERTOWN      CLOUDY    58  55  90 CALM      30.27R
HURON          CLOUDY    64  60  87 E7        30.24R
SISSETON         N/A     60  56  86 CALM      30.25R
ABERDEEN       LGT RAIN  62  58  86 E8        30.23F
MITCHELL       MOSUNNY   63  61  93 CALM      30.23R
PIERRE         CLEAR     65  63  93 SE7       30.18S
MOBRIDGE       PTCLDY    66  60  81 E15       30.19R
RAPID CITY     CLEAR     58  55  90 S8        30.19R
$$

  *****  SOME WEATHER IN NEARBY STATES *****

CITY           SKY/WX    TMP DP  RH WIND       PRES   REMARKS
GLASGOW MT     PTCLDY    62  55  77 E13       29.98F
GREAT FALLS MT CLEAR     56  46  69 E3        29.98S
CHEYENNE WY    MOCLDY    49  46  90 CALM      30.34R FOG
SCOTTSBLUFF NE CLOUDY    59  57  93 CALM      30.27R
OMAHA NE       PTSUNNY   67  63  87 N3        30.18R
DES MOINES IA  CLOUDY    66  60  81 N8        30.15S
DAVENPORT IA   MOSUNNY   67  64  90 N7        30.11R
CHICAGO IL     PTSUNNY   69  62  78 N8        30.07S
EAU CLAIRE WI  SUNNY     55  55 100 CALM      30.18S
LA CROSSE WI   SUNNY     62  60  93 N3        30.17R
$$

  *****  SOME NATIONAL WEATHER *****

CITY           SKY/WX    TMP DP  RH WIND       PRES   REMARKS
LA GUARDIA NY  PTSUNNY   79  68  69 SW9       29.99F
RALEIGH NC     PTSUNNY   79  73  82 S3        30.02F
ATLANTA GA     SUNNY     79  70  74 NE8       30.01S
NEW ORLEANS LA MOSUNNY   85  74  69 NE13      29.88S HX  92
OKLAHOMA CITY  PTSUNNY   75  69  81 NE5       30.09R
ALBUQUERQUE NM CLOUDY    61  55  81 N8        30.30R
SALT LAKE CITY PTCLDY    76  36  23 SE13      30.05R
LOS ANGELES CA CLOUDY    70  66  88 CALM      29.82F FOG
BOISE ID       MOCLDY    64  40  41 SE3       29.90R
SEATTLE WA     MOCLDY    59  52  77 SE7       29.97S
$$

*** WEATHER ACROSS MANITOBA...SASKATCHEWAN AND ONTARIO ***
                ***ONTARIO***

CITY           SKY/WX    TMP DP  RH WIND       PRES   REMARKS
GERALDTON      PTSUNNY   57  54  88 N5        30.12S
THUNDER BAY    PTSUNNY   59  55  88 SW6       30.16S
SIOUX LOOKOUT  CLOUDY    59  55  88 N5        30.22S
TORONTO        PTSUNNY   72  64  78 W5        29.93F
BIG TROUT LK   LGT RAIN  48  46  93 N7G17     30.21  FOG
PICKLE LAKE    PTSUNNY   52  46  82 NW9G18    30.21R
DRYDEN         CLOUDY    54  52  94 W6        30.24S
KENORA         PTSUNNY   55  54  94 N5        30.27R
$$
                *** MANITOBA***

CITY           SKY/WX    TMP DP  RH WIND       PRES   REMARKS
BRANDON        PTCLDY    54  50  87 E9        30.31R
DAUPHIN        FOG       48  48 100 W6        30.33R VSB 1/4
ISLAND LAKE    NOT AVBL
PILOT MOUND      N/A     54  50  87 E7          N/A
THE PAS        CLOUDY    55  46  71 E8        30.35S
THOMPSON       FOG       39  39 100 CALM      30.41R VSB 1/2
WINNIPEG       PTSUNNY   48  46  93 N3        30.30S
LYNN LAKE      CLEAR     45  45 100 MISG      30.37R
CHURCHILL      MOSUNNY   48  46  93 N6        30.39R
GILLAM         MOSUNNY   46  41  81 N9        30.38R
$$
                ***SASKATCHEWAN***

CITY           SKY/WX    TMP DP  RH WIND       PRES   REMARKS
ESTEVAN        MOCLDY    57  50  77 E17G25    30.16F
KINDERSLEY     MOCLDY    52  48  87 E13G18    30.04F
LLOYDMINSTER   MOCLDY    52  46  82 E14G22    30.07F
PRINCE ALBERT  MOCLDY    52  50  93 E12G17    30.23F
REGINA         MOCLDY    59  50  72 E17G29    30.15F
YORKTON        CLEAR     48  46  93 E5        30.29R   C1F1C2F2C3F3C4F4C5F5C6F6C7F7C8F8C9F9CaFaCbFbCcFcCdFdCe!



USA.gov is the U.S. government's official web portal to all federal, state and local government web resources and services.